Location: Agua Amarilla
(10.0342°N, 66.8490°W)
Time: 06:09:28
(UTC+00:00)

USA 229 DEB - Pass Details

Date: 26 June 2022
Orbit: 929 x 1283 km, 63.4° (Epoch: 17 August)

Event Time Altitude Azimuth Distance (km) Brightness Sun altitude
Rises 23:18:01 0° 333° (NNW) 4,158 7.7 -6.7°
Reaches altitude 10° 23:20:46 10° 331° (NNW) 3,222 7.1 -7.4°
Maximum altitude 23:28:37 75° 248° (WSW) 1,319 4.3 -9.1°
Drops below altitude 10° 23:36:36 10° 163° (SSE) 3,262 5.8 -10.9°
Sets 23:39:23 0° 161° (SSE) 4,211 6.4 -11.5°
Enters shadow 23:39:27 - 161° (SSE) 4,232 6.4 -11.5°
